Home > Time Zones > World Clock > Weather > Macau > Macau > Past weeks

Flag Weather past 2 weeks in Macau, Macau

Now
77 °F

Passing clouds.


Feels Like: 78 °F
Forecast: 75 / 83 °F
Wind: 13 mph from Southeast

Location: Taipa

Current Time: Oct 31, 2014 at 2:23:25 AM

Latest Report: Oct 31, 2014 at 2:00 AM


Visibility: N/A

Pressure: 29.95 "Hg

Humidity: 83%

Dew point: 72 °F

Location of MacauLocation

Historic Weather in Macau — Graph

°F

Macau temperature yesterday

Maximum temperature yesterday: 81 °F (at 10:00 AM)
Minimum temperature yesterday: 77 °F (at 12:00 AM)
Average temperature yesterday: 78 °F

Past Weeks' High & Low Weather Summary

 TemperatureHumidityPressure
High86 °F (Oct 21, 1:00 PM)89% (Oct 23, 2:30 AM)30.09 "Hg (Oct 23, 2:30 AM)
Low73 °F (Oct 23, 4:00 AM)52% (Oct 21, 3:00 PM)29.92 "Hg (Oct 20, 4:30 AM)
Average79 °F75%30.00 "Hg
* Reported Oct 16 1:00 AM — Oct 31 1:00 AM, Macau, Weather by CustomWeather, © 2014

Note: Actual official high and low records may vary slightly from our data, if they occured in-between our weather recording intervals... More about our weather records

Advertising

Macau weather history for previous 24 hours

 ConditionsComfort  
Time TempWeatherWind HumidityBarometerVisibility
1:00 AM
Oct 31
77 °FPassing clouds.10 mph83%29.98 "HgN/A
12:30 AM77 °FPassing clouds.9 mph83%29.98 "HgN/A
12:00 AM77 °FPassing clouds.8 mph83%29.98 "HgN/A
11:30 PM
Oct 30
77 °FPassing clouds.9 mph83%29.98 "HgN/A
11:00 PM77 °FPassing clouds.9 mph83%29.98 "HgN/A
10:30 PM77 °FPassing clouds.10 mph83%29.98 "HgN/A
10:00 PM77 °FPassing clouds.9 mph83%29.98 "HgN/A
9:30 PM77 °FPassing clouds.9 mph83%29.98 "HgN/A
9:00 PM77 °FPassing clouds.9 mph83%29.98 "HgN/A
8:30 PM77 °FPassing clouds.12 mph83%29.98 "HgN/A
8:00 PM77 °FPassing clouds.10 mph83%29.98 "HgN/A
7:30 PM77 °FPassing clouds.10 mph83%29.95 "HgN/A
7:00 PM77 °FPassing clouds.13 mph83%29.95 "HgN/A
6:30 PM77 °FClear.13 mph83%29.95 "Hg6 mi
6:00 PM77 °FClear.13 mph83%29.95 "Hg6 mi
5:30 PM77 °FClear.14 mph83%29.95 "Hg6 mi
5:00 PM79 °FClear.12 mph79%29.95 "Hg5 mi
4:30 PM79 °FPassing clouds.13 mph79%29.95 "Hg6 mi
4:00 PM79 °FClear.13 mph79%29.95 "Hg6 mi
3:30 PM81 °FPassing clouds.12 mph70%29.95 "HgN/A
3:00 PM81 °FPassing clouds.12 mph70%29.95 "HgN/A
2:30 PM81 °FPassing clouds.12 mph70%29.95 "HgN/A
2:00 PM81 °FPassing clouds.13 mph74%29.98 "HgN/A
1:30 PM81 °FPassing clouds.12 mph74%29.98 "HgN/A
1:00 PM81 °FPassing clouds.12 mph74%29.98 "HgN/A
12:30 PM81 °FPassing clouds.10 mph74%30.01 "HgN/A
12:00 PM81 °FPassing clouds.13 mph74%30.01 "HgN/A
11:30 AM81 °FPassing clouds.12 mph74%30.01 "HgN/A
11:00 AM81 °FPassing clouds.12 mph74%30.04 "HgN/A
10:30 AM81 °FPassing clouds.10 mph74%30.04 "HgN/A
10:00 AM81 °FPassing clouds.12 mph74%30.04 "HgN/A
9:30 AM79 °FPassing clouds.14 mph79%30.01 "HgN/A
9:00 AM79 °FScattered clouds.15 mph79%30.01 "HgN/A
8:30 AM79 °FScattered clouds.15 mph79%30.01 "HgN/A
7:30 AM77 °FScattered clouds.13 mph83%30.01 "HgN/A
7:00 AM77 °FScattered clouds.15 mph83%29.98 "HgN/A
6:30 AM77 °FScattered clouds.14 mph83%29.98 "HgN/A
6:00 AM77 °FPassing clouds.15 mph83%29.98 "HgN/A
5:30 AM77 °FPassing clouds.15 mph83%29.98 "HgN/A
5:00 AM77 °FPassing clouds.15 mph83%29.95 "HgN/A
4:30 AM77 °FPassing clouds.18 mph83%29.95 "HgN/A
4:00 AM77 °FPassing clouds.17 mph83%29.95 "HgN/A
3:30 AM77 °FPassing clouds.16 mph83%29.95 "HgN/A
3:00 AM77 °FPassing clouds.15 mph83%29.98 "HgN/A
2:30 AM77 °FPassing clouds.12 mph83%29.98 "HgN/A
2:00 AM77 °FPassing clouds.9 mph83%29.98 "HgN/A
Weather by CustomWeather, © 2014

See weather overviewHow to use our weather pages